When you browse on this site, cookies collect data to enhance your experience and personalize the content and advertising you see.
Visit our Privacy Policy to learn more. By continuing to use the site, you agree to this use of cookies and data.
  • In Lithuania
  • List of Countries
  • For 7 days
  • Water Temperature
  • Satellite Maps
  • Weather Map
  • Weather Widgets
  • user-avatar
    Login

    Hourly Weather Berat

    Today, 26 June, Wednesday

    Time Temperature Precipitation Wind Pressure Humidity
    00:00 +24°C° 0 mm 2 mps 747 mmHg 65%
    01:00 +24°C° 0 mm 2 mps 746 mmHg 65%
    02:00 +24°C° 0 mm 2 mps 746 mmHg 66%
    03:00 +24°C° 0 mm 2 mps 746 mmHg 67%
    04:00 +23°C° 0 mm 2 mps 746 mmHg 69%
    05:00 +25°C° 0 mm 2 mps 746 mmHg 66%
    06:00 +27°C° 0 mm 2 mps 746 mmHg 62%
    07:00 +28°C° 0 mm 2 mps 747 mmHg 58%
    08:00 +30°C° 0 mm 3 mps 747 mmHg 53%
    09:00 +31°C° 0 mm 3 mps 747 mmHg 48%
    10:00 +34°C° 0 mm 3 mps 747 mmHg 42%
    11:00 +34°C° 0 mm 3 mps 747 mmHg 41%
    12:00 +35°C° 0 mm 3 mps 747 mmHg 40%
    13:00 +35°C° 0 mm 3 mps 747 mmHg 38%
    14:00 +35°C° 0 mm 3 mps 747 mmHg 40%
    15:00 +35°C° 0 mm 3 mps 746 mmHg 41%
    16:00 +34°C° 0 mm 3 mps 746 mmHg 43%
    17:00 +33°C° 0 mm 3 mps 746 mmHg 48%
    18:00 +30°C° 0 mm 3 mps 746 mmHg 54%
    19:00 +28°C° 0 mm 2 mps 746 mmHg 60%
    20:00 +27°C° 0 mm 2 mps 746 mmHg 62%
    21:00 +26°C° 0 mm 3 mps 746 mmHg 64%
    22:00 +26°C° 0 mm 3 mps 747 mmHg 66%
    23:00 +25°C° 0 mm 3 mps 747 mmHg 67%

    Tomorrow, 27 June, Thursday

    Time Temperature Precipitation Wind Pressure Humidity
    00:00 +25°C° 0 mm 2 mps 747 mmHg 67%
    01:00 +24°C° 0 mm 2 mps 747 mmHg 68%
    02:00 +24°C° 0 mm 2 mps 746 mmHg 69%
    03:00 +24°C° 0 mm 2 mps 746 mmHg 69%
    04:00 +24°C° 0 mm 2 mps 746 mmHg 70%
    05:00 +25°C° 0 mm 2 mps 746 mmHg 66%
    06:00 +27°C° 0 mm 2 mps 746 mmHg 62%
    07:00 +29°C° 0 mm 2 mps 746 mmHg 58%
    08:00 +30°C° 0 mm 2 mps 746 mmHg 52%
    09:00 +32°C° 0 mm 2 mps 746 mmHg 45%
    10:00 +35°C° 0 mm 2 mps 746 mmHg 39%
    11:00 +35°C° 0 mm 2 mps 746 mmHg 37%
    12:00 +36°C° 0 mm 2 mps 745 mmHg 36%
    13:00 +36°C° 0 mm 2 mps 745 mmHg 34%
    14:00 +36°C° 0 mm 2 mps 744 mmHg 36%
    15:00 +35°C° 0 mm 2 mps 744 mmHg 39%
    16:00 +35°C° 0 mm 3 mps 744 mmHg 41%
    17:00 +32°C° 0 mm 2 mps 743 mmHg 49%
    18:00 +30°C° 0 mm 1 mps 743 mmHg 57%
    19:00 +28°C° 0 mm 1 mps 743 mmHg 65%
    20:00 +27°C° 0 mm 1 mps 743 mmHg 67%
    21:00 +26°C° 0 mm 1 mps 743 mmHg 68%
    22:00 +25°C° 0 mm 1 mps 743 mmHg 69%
    23:00 +25°C° 0 mm 1 mps 743 mmHg 68%

    Day after tomorrow, 28 June, Friday

    Time Temperature Precipitation Wind Pressure Humidity
    00:00 +25°C° 0 mm 1 mps 743 mmHg 68%
    01:00 +24°C° 0 mm 1 mps 743 mmHg 67%
    02:00 +24°C° 0 mm 1 mps 742 mmHg 66%
    03:00 +24°C° 0 mm 1 mps 742 mmHg 66%
    04:00 +23°C° 0 mm 2 mps 742 mmHg 66%
    05:00 +25°C° 0 mm 1 mps 742 mmHg 61%
    06:00 +27°C° 0 mm 1 mps 742 mmHg 56%
    07:00 +29°C° 0 mm 1 mps 742 mmHg 51%
    08:00 +31°C° 0 mm 1 mps 742 mmHg 46%
    09:00 +33°C° 0 mm 1 mps 742 mmHg 41%
    10:00 +34°C° 0 mm 1 mps 742 mmHg 36%
    11:00 +36°C° 0 mm 2 mps 742 mmHg 35%
    12:00 +36°C° 0 mm 2 mps 741 mmHg 35%
    13:00 +37°C° 0 mm 3 mps 741 mmHg 34%
    14:00 +36°C° 0 mm 3 mps 741 mmHg 36%
    15:00 +36°C° 0 mm 4 mps 741 mmHg 39%
    16:00 +35°C° 0 mm 4 mps 740 mmHg 41%
    17:00 +33°C° 0 mm 3 mps 741 mmHg 48%
    18:00 +30°C° 0 mm 2 mps 741 mmHg 55%
    19:00 +28°C° 0 mm 1 mps 741 mmHg 61%
    20:00 +27°C° 0 mm 1 mps 741 mmHg 64%
    21:00 +26°C° 0 mm 1 mps 741 mmHg 66%
    22:00 +25°C° 0 mm 2 mps 742 mmHg 68%
    23:00 +25°C° 0 mm 2 mps 742 mmHg 68%

    29 June, Saturday

    Time Temperature Precipitation Wind Pressure Humidity
    00:00 +24°C° 0 mm 2 mps 742 mmHg 68%
    01:00 +24°C° 0 mm 3 mps 742 mmHg 68%
    02:00 +22°C° 0 mm 3 mps 742 mmHg 68%
    03:00 +21°C° 0 mm 3 mps 741 mmHg 68%
    04:00 +21°C° 0 mm 3 mps 741 mmHg 68%
    05:00 +22°C° 0 mm 3 mps 742 mmHg 64%
    06:00 +24°C° 0 mm 3 mps 742 mmHg 60%
    07:00 +25°C° 0 mm 3 mps 742 mmHg 56%
    08:00 +27°C° 0 mm 3 mps 742 mmHg 49%
    09:00 +29°C° 0 mm 3 mps 743 mmHg 42%
    10:00 +31°C° 0 mm 3 mps 743 mmHg 34%
    11:00 +33°C° 0 mm 3 mps 743 mmHg 33%
    12:00 +32°C° 0 mm 2 mps 743 mmHg 32%
    13:00 +34°C° 0 mm 2 mps 743 mmHg 31%
    14:00 +34°C° 0 mm 2 mps 743 mmHg 32%
    15:00 +34°C° 0 mm 2 mps 743 mmHg 33%
    16:00 +34°C° 0 mm 3 mps 743 mmHg 34%
    17:00 +30°C° 0 mm 2 mps 743 mmHg 38%
    18:00 +28°C° 0 mm 2 mps 743 mmHg 44%
    19:00 +26°C° 0 mm 2 mps 743 mmHg 49%
    20:00 +25°C° 0 mm 2 mps 744 mmHg 49%
    21:00 +24°C° 0 mm 2 mps 744 mmHg 49%
    22:00 +23°C° 0 mm 2 mps 744 mmHg 49%
    23:00 +23°C° 0 mm 2 mps 744 mmHg 51%

    30 June, Sunday

    Time Temperature Precipitation Wind Pressure Humidity
    00:00 +21°C° 0 mm 3 mps 744 mmHg 52%
    01:00 +20°C° 0 mm 3 mps 745 mmHg 54%
    02:00 +20°C° 0 mm 3 mps 744 mmHg 56%
    03:00 +20°C° 0 mm 3 mps 744 mmHg 58%
    04:00 +19°C° 0 mm 3 mps 744 mmHg 60%
    05:00 +21°C° 0 mm 2 mps 745 mmHg 56%
    06:00 +24°C° 0 mm 2 mps 745 mmHg 53%
    07:00 +25°C° 0 mm 2 mps 745 mmHg 50%
    08:00 +27°C° 0 mm 2 mps 746 mmHg 44%
    09:00 +29°C° 0 mm 1 mps 746 mmHg 38%
    10:00 +31°C° 0 mm 1 mps 746 mmHg 32%
    11:00 +32°C° 0 mm 1 mps 746 mmHg 31%
    12:00 +32°C° 0 mm 2 mps 746 mmHg 31%
    13:00 +34°C° 0 mm 2 mps 746 mmHg 30%
    14:00 +33°C° 0 mm 3 mps 746 mmHg 35%
    15:00 +33°C° 0 mm 3 mps 746 mmHg 40%
    16:00 +31°C° 0 mm 3 mps 746 mmHg 45%
    17:00 +29°C° 0 mm 2 mps 746 mmHg 51%
    18:00 +27°C° 0 mm 2 mps 746 mmHg 57%
    19:00 +25°C° 0 mm 1 mps 746 mmHg 64%
    20:00 +24°C° 0 mm 1 mps 746 mmHg 63%
    21:00 +24°C° 0 mm 1 mps 747 mmHg 63%
    22:00 +23°C° 0 mm 2 mps 747 mmHg 63%
    23:00 +21°C° 0 mm 2 mps 747 mmHg 62%

    1 July, Monday

    Time Temperature Precipitation Wind Pressure Humidity
    00:00 +21°C° 0 mm 2 mps 747 mmHg 61%
    01:00 +21°C° 0 mm 2 mps 747 mmHg 60%
    02:00 +20°C° 0 mm 2 mps 747 mmHg 59%
    03:00 +20°C° 0 mm 2 mps 747 mmHg 59%
    04:00 +20°C° 0 mm 2 mps 747 mmHg 59%
    05:00 +23°C° 0 mm 2 mps 747 mmHg 56%
    06:00 +24°C° 0 mm 2 mps 747 mmHg 53%
    07:00 +26°C° 0 mm 1 mps 747 mmHg 50%
    08:00 +28°C° 0 mm 1 mps 747 mmHg 45%
    09:00 +30°C° 0 mm 1 mps 747 mmHg 40%
    10:00 +32°C° 0 mm 1 mps 747 mmHg 36%
    11:00 +32°C° 0 mm 1 mps 747 mmHg 35%
    12:00 +34°C° 0 mm 2 mps 747 mmHg 34%
    13:00 +34°C° 0 mm 2 mps 747 mmHg 33%
    14:00 +34°C° 0 mm 3 mps 746 mmHg 38%
    15:00 +33°C° 0 mm 3 mps 746 mmHg 44%
    16:00 +32°C° 0 mm 4 mps 746 mmHg 49%
    17:00 +29°C° 0 mm 3 mps 746 mmHg 56%
    18:00 +27°C° 0 mm 2 mps 746 mmHg 64%
    19:00 +25°C° 0 mm 1 mps 746 mmHg 71%
    20:00 +25°C° 0 mm 1 mps 746 mmHg 71%
    21:00 +24°C° 0 mm 1 mps 746 mmHg 72%
    22:00 +23°C° 0 mm 1 mps 746 mmHg 72%
    23:00 +23°C° 0 mm 1 mps 746 mmHg 71%
    Show more